Find OneWeb SL0702

NORAD ID: 61608 Int'l Des: 2024-188 Owner: ONEWEBE Country: UK Constellation: oneweb operational
LEOCIRCULARPOLARONEWEB_TYPE

Live Position

Loading 3D Globe...

About OneWeb SL0702

Description loading...

Upcoming Passes

Passes for default location (London). Set your location on the main map for personalized predictions.

Altitude History

Loading altitude history...

Two-Line Element Set

1 61608U 24188Q 26124.45406609 -.00000507 00000-0 -14673-2 0 9990
2 61608 87.8938 29.6760 0001126 49.0032 311.1194 13.11415176 78751
Epoch: May 4, 2026 • Age: 7 hours

Current Status

Altitude 1247.1 km
Velocity 7.23 km/s
Sub-Earth Point -86.48°S, 136.14°W
Launch Date Oct 20, 2024
Age 1.5 years
Type internet

Technical Details

Classification Payload
Mass 148.00 kg
Dry Mass 140.00 kg
Total Mass 148.00 kg
Length 1.30 m
Diameter 1.00 m
Span 5.00 m
Shape Trapezoid+2 pan
Manufacturer ONEWUS
Bus Type ARROW
Phase Status In Orbit
Owner/State ONEWEBE/UK

Most Searched